Printer-friendly version

IAU Minor Planet Center

Minor Planet Center

MPEC 2000-C18: 2000 BN19

The following Minor Planet Electronic Circular may be linked-to from your own Web pages, but must not otherwise be redistributed electronically.


Read MPEC 2000-C17 Read MPEC 2000-C19


M.P.E.C. 2000-C18                                Issued 2000 Feb. 3, 17:57 UT

     The Minor Planet Electronic Circulars contain information on unusual
         minor planets and routine data on comets.  They are published
   on behalf of Commission 20 of the International Astronomical Union by the
          Minor Planet Center, Smithsonian Astrophysical Observatory,
                          Cambridge, MA 02138, U.S.A.

             Prepared using the Tamkin Foundation Computer Network

             BMARSDEN@CFA.HARVARD.EDU or GWILLIAMS@CFA.HARVARD.EDU
          URL http://cfa-www.harvard.edu/iau/mpc.html  ISSN 1523-6714

                                   2000 BN19

Observations:
     K00B19N* C2000 01 31.08058 01 43 58.81 +26 16 39.9          18.8        704
     K00B19N  C2000 01 31.09527 01 44 02.76 +26 16 16.0          18.8        704
     K00B19N  C2000 01 31.10995 01 44 06.79 +26 15 53.1          19.1        704
     K00B19N  C2000 01 31.12466 01 44 10.79 +26 15 30.2          19.2        704
     K00B19N  C2000 02 01.09723 01 48 41.53 +25 49 56.7          19.1 R      858
     K00B19N  C2000 02 01.09931 01 48 42.16 +25 49 52.5          19.3 R      858
     K00B19N  C2000 02 01.10219 01 48 42.92 +25 49 47.9          19.1 R      858
     K00B19N  C2000 02 01.10531 01 48 43.79 +25 49 42.8          19.2 R      858
     K00B19N WC2000 02 01.71417 01 51 33.35 +25 33 27.8                      557
     K00B19N WC2000 02 01.71557 01 51 33.70 +25 33 24.4                      557
     K00B19N  C2000 02 01.76411 01 51 47.03 +25 32 07.1                      557
     K00B19N WC2000 02 01.76563 01 51 47.38 +25 32 03.8                      557
     K00B19N  C2000 02 01.78697 01 51 53.17 +25 31 30.2                      046
     K00B19N  C2000 02 01.78845 01 51 53.65 +25 31 29.4          18.6 R      046
     K00B19N  C2000 02 01.78969 01 51 53.85 +25 31 26.8                      046
     K00B19N  C2000 02 01.79119 01 51 54.35 +25 31 24.6          18.5 R      046
     K00B19N  C2000 02 01.79242 01 51 54.89 +25 31 23.6                      046
     K00B19N  C2000 02 02.09774 01 53 19.50 +25 23 15.6          19.7 R      858
     K00B19N  C2000 02 02.10130 01 53 20.46 +25 23 10.2          19.5 R      858

Observer details:
046 Klet.  Observers M. Tichy, Z. Moravec.  0.57-m f/5.2 reflector + CCD.
557 Ondrejov.  Observer L. Sarounova.  0.65-m f/3.6 reflector + CCD.
704 Lincoln Laboratory ETS, New Mexico.  Observers M. Blythe, F. Shelly,
    M. Bezpalko, M. Elowitz, R. Huber.  Measurers J. Stuart, H. Viggh,
    R. Sayer, J. B. Evans.  1.0-m f/2.15 reflector + CCD.
858 Tebbutt Observatory, Edgewood.  Observer F. B. Zoltowski.  0.3-m f/3.3
    Schmidt-Cassegrain + CCD.

Orbital elements:
2000 BN19                                                            PHA 0.048D
Epoch 2000 Jan. 17.0 TT = JDT 2451560.5                 Williams
M 328.36079              (2000.0)            P               Q
n   0.67187218     Peri.  194.85990     -0.65063920     -0.66449341
a   1.2910556      Node   297.28814     +0.73208712     -0.42024472
e   0.1926989      Incl.   24.43199     +0.20178473     -0.61793437
P   1.47           H   18.4           G   0.15
From 19 observations 2000 Jan. 31-Feb. 2.

Ephemeris:
2000 BN19                a,e,i = 1.29, 0.19, 24                  q = 1.0423
Date    TT    R. A. (2000) Decl.     Delta      r     Elong.  Phase     V
2000 01 27    01 25.01   +27 59.8    0.546    1.077    84.2    65.5    19.6
2000 02 01    01 48.25   +25 52.6    0.546    1.068    83.2    66.3    19.6
2000 02 06    02 11.29   +23 35.9    0.547    1.061    82.2    67.0    19.6
2000 02 11    02 33.97   +21 11.4    0.551    1.055    81.3    67.6    19.6
2000 02 16    02 56.12   +18 41.0    0.556    1.050    80.4    68.1    19.6
2000 02 21    03 17.64   +16 06.7    0.563    1.046    79.6    68.4    19.7
2000 02 26    03 38.47   +13 30.7    0.572    1.044    78.9    68.6    19.7
2000 03 02    03 58.60   +10 55.1    0.582    1.042    78.3    68.6    19.7
2000 03 07    04 18.04   +08 21.8    0.594    1.042    77.7    68.5    19.8
2000 03 12    04 36.85   +05 52.1    0.607    1.044    77.2    68.2    19.8
2000 03 17    04 55.06   +03 27.0    0.621    1.047    76.9    67.8    19.9
2000 03 22    05 12.73   +01 07.2    0.635    1.051    76.6    67.3    19.9
2000 03 27    05 29.96   -01 06.8    0.650    1.056    76.5    66.8    19.9

2000 04 06    06 03.43   -05 16.4    0.680    1.070    76.4    65.4    20.0
2000 04 16    06 36.21   -09 02.5    0.709    1.088    76.7    63.9    20.1
2000 04 26    07 08.88   -12 27.0    0.738    1.109    77.3    62.2    20.2
2000 05 06    07 42.07   -15 31.5    0.765    1.134    78.1    60.5    20.3
2000 05 16    08 16.24   -18 18.0    0.793    1.161    79.1    58.8    20.3
2000 05 26    08 51.61   -20 47.1    0.822    1.189    80.0    57.1    20.4
2000 06 05    09 28.32   -22 58.1    0.854    1.218    80.9    55.3    20.5
2000 06 15    10 06.25   -24 50.6    0.890    1.248    81.5    53.6    20.6
2000 06 25    10 45.04   -26 23.0    0.932    1.278    81.8    52.0    20.7
2000 07 05    11 24.25   -27 34.4    0.981    1.307    81.7    50.3    20.8
2000 07 10    11 43.85   -28 02.4    1.009    1.321    81.4    49.6    20.9
2000 07 20    12 22.69   -28 43.4    1.069    1.349    80.5    48.0    21.0
2000 07 30    13 00.71   -29 05.6    1.137    1.375    79.2    46.5    21.1
2000 08 09    13 37.59   -29 11.3    1.213    1.400    77.4    45.0    21.3
2000 08 19    14 13.14   -29 02.7    1.294    1.423    75.1    43.4    21.4
2000 08 29    14 47.29   -28 41.6    1.381    1.445    72.5    41.8    21.5
2000 09 08    15 20.12   -28 09.7    1.470    1.464    69.6    40.2    21.7
2000 09 18    15 51.66   -27 27.8    1.562    1.482    66.5    38.4    21.8
2000 09 28    16 22.07   -26 36.5    1.654    1.497    63.1    36.7    21.9
2000 10 08    16 51.46   -25 36.1    1.745    1.510    59.6    34.8    21.9
2000 10 18    17 19.95   -24 26.3    1.834    1.521    56.0    32.9    22.0

Gareth V. Williams           (C) Copyright 2000 MPC           M.P.E.C. 2000-C18

Read MPEC 2000-C17 Read MPEC 2000-C19


Our Web policy. Index to the CBAT/MPC/ICQ pages.


Valid HTML 4.01!